• In Belarus
  • List of Countries
  • For 7 days
  • Water Temperature
  • Satellite Maps
  • Weather Map
  • Weather Widgets
  • user-avatar
    Login

    Hourly Weather Shaki

    Today, 18 October, Thursday

    Time Temperature Precipitation Wind Pressure Humidity
    00:00 +16°C° 0 mm 1 mps 740 mmHg 81%
    01:00 +16°C° 0 mm 1 mps 740 mmHg 79%
    02:00 +15°C° 0 mm 1 mps 740 mmHg 77%
    03:00 +15°C° 0 mm 1 mps 739 mmHg 75%
    04:00 +15°C° 0 mm 1 mps 739 mmHg 73%
    05:00 +15°C° 0 mm 1 mps 739 mmHg 70%
    06:00 +15°C° 0 mm 1 mps 739 mmHg 68%
    07:00 +18°C° 0 mm 1 mps 739 mmHg 65%
    08:00 +19°C° 0 mm 1 mps 739 mmHg 63%
    09:00 +20°C° 0 mm 2 mps 739 mmHg 60%
    10:00 +21°C° 0 mm 2 mps 739 mmHg 57%
    11:00 +23°C° 0 mm 2 mps 739 mmHg 54%
    12:00 +23°C° 0 mm 2 mps 739 mmHg 51%
    13:00 +24°C° 0 mm 2 mps 738 mmHg 51%
    14:00 +24°C° 0 mm 2 mps 738 mmHg 50%
    15:00 +24°C° 0 mm 2 mps 738 mmHg 50%
    16:00 +23°C° 0 mm 2 mps 738 mmHg 57%
    17:00 +20°C° 0 mm 2 mps 738 mmHg 64%
    18:00 +19°C° 0 mm 2 mps 738 mmHg 71%
    19:00 +18°C° 0 mm 2 mps 739 mmHg 71%
    20:00 +18°C° 0 mm 2 mps 739 mmHg 70%
    21:00 +17°C° 0 mm 2 mps 739 mmHg 70%
    22:00 +17°C° 0 mm 2 mps 739 mmHg 71%
    23:00 +17°C° 0 mm 2 mps 739 mmHg 72%

    Tomorrow, 19 October, Friday

    Time Temperature Precipitation Wind Pressure Humidity
    00:00 +16°C° 0 mm 2 mps 739 mmHg 73%
    01:00 +16°C° 0 mm 2 mps 739 mmHg 73%
    02:00 +16°C° 0 mm 1 mps 739 mmHg 74%
    03:00 +15°C° 0 mm 1 mps 739 mmHg 74%
    04:00 +15°C° 0 mm 1 mps 739 mmHg 73%
    05:00 +15°C° 0 mm 1 mps 739 mmHg 73%
    06:00 +15°C° 0 mm 1 mps 739 mmHg 72%
    07:00 +18°C° 0 mm 1 mps 739 mmHg 69%
    08:00 +19°C° 0 mm 1 mps 739 mmHg 66%
    09:00 +20°C° 0 mm 1 mps 739 mmHg 62%
    10:00 +21°C° 0 mm 1 mps 739 mmHg 60%
    11:00 +21°C° 0 mm 2 mps 739 mmHg 57%
    12:00 +23°C° 0 mm 2 mps 738 mmHg 55%
    13:00 +23°C° 0 mm 2 mps 738 mmHg 55%
    14:00 +23°C° 0 mm 2 mps 738 mmHg 55%
    15:00 +24°C° 0 mm 2 mps 737 mmHg 55%
    16:00 +21°C° 0 mm 2 mps 737 mmHg 62%
    17:00 +21°C° 0 mm 1 mps 737 mmHg 69%
    18:00 +20°C° 0 mm 1 mps 738 mmHg 75%
    19:00 +19°C° 0 mm 1 mps 738 mmHg 77%
    20:00 +19°C° 0 mm 1 mps 738 mmHg 78%
    21:00 +18°C° 0 mm 1 mps 738 mmHg 79%
    22:00 +18°C° 0 mm 1 mps 738 mmHg 80%
    23:00 +18°C° 0 mm 1 mps 738 mmHg 80%

    Day after tomorrow, 20 October, Saturday

    Time Temperature Precipitation Wind Pressure Humidity
    00:00 +16°C° 0 mm 1 mps 738 mmHg 81%
    01:00 +16°C° 0 mm 1 mps 737 mmHg 81%
    02:00 +16°C° 0 mm 1 mps 737 mmHg 82%
    03:00 +15°C° 0 mm 1 mps 737 mmHg 82%
    04:00 +15°C° 0 mm 1 mps 737 mmHg 82%
    05:00 +15°C° 0 mm 1 mps 737 mmHg 81%
    06:00 +15°C° 0 mm 1 mps 736 mmHg 81%
    07:00 +18°C° 0 mm 1 mps 736 mmHg 73%
    08:00 +19°C° 0 mm 1 mps 737 mmHg 66%
    09:00 +20°C° 0 mm 2 mps 737 mmHg 59%
    10:00 +21°C° 0 mm 2 mps 736 mmHg 53%
    11:00 +23°C° 0 mm 2 mps 736 mmHg 47%
    12:00 +24°C° 0 mm 2 mps 735 mmHg 42%
    13:00 +25°C° 0 mm 2 mps 735 mmHg 40%
    14:00 +25°C° 0 mm 1 mps 735 mmHg 39%
    15:00 +25°C° 0 mm 1 mps 735 mmHg 37%
    16:00 +24°C° 0 mm 1 mps 735 mmHg 42%
    17:00 +22°C° 0 mm 1 mps 735 mmHg 47%
    18:00 +20°C° 0 mm 1 mps 735 mmHg 52%
    19:00 +20°C° 0 mm 1 mps 735 mmHg 53%
    20:00 +20°C° 0 mm 1 mps 735 mmHg 54%
    21:00 +19°C° 0 mm 1 mps 735 mmHg 55%
    22:00 +19°C° 0 mm 1 mps 735 mmHg 56%
    23:00 +19°C° 0 mm 1 mps 735 mmHg 56%

    21 October, Sunday

    Time Temperature Precipitation Wind Pressure Humidity
    00:00 +18°C° 0 mm 1 mps 735 mmHg 57%
    01:00 +18°C° 0 mm 1 mps 735 mmHg 56%
    02:00 +18°C° 0 mm 1 mps 734 mmHg 55%
    03:00 +18°C° 0 mm 1 mps 734 mmHg 54%
    04:00 +18°C° 0 mm 1 mps 734 mmHg 52%
    05:00 +18°C° 0 mm 1 mps 734 mmHg 50%
    06:00 +16°C° 0 mm 1 mps 734 mmHg 47%
    07:00 +19°C° 0 mm 1 mps 734 mmHg 44%
    08:00 +21°C° 0 mm 1 mps 734 mmHg 40%
    09:00 +23°C° 0 mm 1 mps 734 mmHg 36%
    10:00 +24°C° 0 mm 2 mps 734 mmHg 34%
    11:00 +25°C° 0 mm 2 mps 734 mmHg 31%
    12:00 +26°C° 0 mm 2 mps 734 mmHg 29%
    13:00 +26°C° 0 mm 2 mps 733 mmHg 29%
    14:00 +26°C° 0 mm 2 mps 733 mmHg 28%
    15:00 +26°C° 0 mm 2 mps 732 mmHg 28%
    16:00 +25°C° 0 mm 1 mps 732 mmHg 32%
    17:00 +23°C° 0 mm 1 mps 733 mmHg 35%
    18:00 +21°C° 0 mm 1 mps 733 mmHg 39%
    19:00 +21°C° 0 mm 1 mps 733 mmHg 39%
    20:00 +21°C° 0 mm 1 mps 733 mmHg 39%
    21:00 +20°C° 0 mm 1 mps 733 mmHg 39%
    22:00 +20°C° 0 mm 1 mps 733 mmHg 40%
    23:00 +20°C° 0 mm 1 mps 732 mmHg 40%

    22 October, Monday

    Time Temperature Precipitation Wind Pressure Humidity
    00:00 +19°C° 0 mm 1 mps 732 mmHg 40%
    01:00 +19°C° 0 mm 1 mps 732 mmHg 40%
    02:00 +18°C° 0 mm 2 mps 732 mmHg 41%
    03:00 +18°C° 0 mm 2 mps 732 mmHg 41%
    04:00 +18°C° 0 mm 2 mps 732 mmHg 42%
    05:00 +18°C° 0 mm 2 mps 732 mmHg 44%
    06:00 +18°C° 0 mm 2 mps 733 mmHg 45%
    07:00 +19°C° 0 mm 2 mps 733 mmHg 42%
    08:00 +21°C° 0 mm 2 mps 733 mmHg 39%
    09:00 +23°C° 0 mm 2 mps 733 mmHg 35%
    10:00 +24°C° 0 mm 3 mps 733 mmHg 33%
    11:00 +25°C° 0 mm 3 mps 733 mmHg 30%
    12:00 +27°C° 0 mm 3 mps 733 mmHg 28%
    13:00 +27°C° 0 mm 3 mps 733 mmHg 28%
    14:00 +27°C° 0 mm 3 mps 733 mmHg 28%
    15:00 +27°C° 0 mm 3 mps 732 mmHg 28%
    16:00 +25°C° 0 mm 2 mps 733 mmHg 31%
    17:00 +24°C° 0 mm 2 mps 733 mmHg 34%
    18:00 +21°C° 0 mm 2 mps 734 mmHg 37%
    19:00 +21°C° 0 mm 2 mps 734 mmHg 37%
    20:00 +20°C° 0 mm 2 mps 734 mmHg 37%
    21:00 +20°C° 0 mm 2 mps 734 mmHg 38%
    22:00 +20°C° 0 mm 2 mps 734 mmHg 39%
    23:00 +19°C° 0 mm 2 mps 734 mmHg 40%

    23 October, Tuesday

    Time Temperature Precipitation Wind Pressure Humidity
    00:00 +19°C° 0 mm 2 mps 734 mmHg 42%
    01:00 +19°C° 0 mm 2 mps 734 mmHg 43%
    02:00 +18°C° 0 mm 2 mps 734 mmHg 44%
    03:00 +18°C° 0 mm 2 mps 735 mmHg 45%
    04:00 +18°C° 0 mm 2 mps 735 mmHg 46%
    05:00 +18°C° 0 mm 2 mps 735 mmHg 47%
    06:00 +18°C° 0 mm 2 mps 735 mmHg 48%
    07:00 +20°C° 0 mm 2 mps 735 mmHg 43%
    08:00 +23°C° 0 mm 2 mps 735 mmHg 38%
    09:00 +24°C° 0 mm 3 mps 735 mmHg 33%
    10:00 +26°C° 0 mm 3 mps 735 mmHg 31%
    11:00 +27°C° 0 mm 3 mps 735 mmHg 29%
    12:00 +28°C° 0 mm 3 mps 734 mmHg 27%
    13:00 +28°C° 0 mm 3 mps 734 mmHg 28%
    14:00 +28°C° 0 mm 3 mps 734 mmHg 28%
    15:00 +28°C° 0 mm 4 mps 734 mmHg 29%
    16:00 +26°C° 0 mm 3 mps 734 mmHg 32%
    17:00 +24°C° 0 mm 3 mps 734 mmHg 35%
    18:00 +23°C° 0 mm 2 mps 734 mmHg 39%
    19:00 +21°C° 0 mm 2 mps 734 mmHg 39%
    20:00 +21°C° 0 mm 2 mps 734 mmHg 40%
    21:00 +21°C° 0 mm 2 mps 734 mmHg 41%
    22:00 +21°C° 0 mm 2 mps 734 mmHg 42%
    23:00 +20°C° 0 mm 2 mps 733 mmHg 42%
    Show more